Regional Weather Roundup
Issued by NWS Lake Charles, LA

Home | Current Version | Previous Version | Text Only | Print | Product List | Glossary On
Versions: 1 2 3 4 5 6 7 8 9 10 11 12 13 14 15 16 17 18 19 20 21 22 23 24 25 26 27
000
ASUS44 KLCH 240810
RWRLCH
REGIONAL WEATHER ROUNDUP
NATIONAL WEATHER SERVICE LAKE CHARLES LA
200 AM CST FRI NOV 24 2017

Note: "fair" indicates few or no clouds below 12,000 feet with no
significant weather and/or obstructions to visibility.


ACROSS SOUTHEAST TEXAS

CITY           SKY/WX    TMP DP  RH WIND       PRES   REMARKS
BEAUMONT       CLEAR     41  38  89 N3        30.06S
BEAUMONT CITY  FAIR      41  39  93 CALM      30.06F
ORANGE         SUNNY     37  37 100 CALM      30.08S
JASPER         CLEAR     37  37 100 CALM      30.08S
$$

ACROSS CENTRAL LOUISIANA

CITY           SKY/WX    TMP DP  RH WIND       PRES   REMARKS
LEESVILLE      CLEAR     37  35  94 CALM      30.05S
FULLERTON      FAIR      35  34  96 CALM      30.03S
ALEXANDRIA INT CLEAR     35  33  92 CALM      30.04F
ESLER FIELD    CLEAR     32  32 100 CALM      30.05F
DERIDDER       FAIR      37  36  95 CALM      30.07F
OAKDALE        SUNNY     32  31  95 CALM      30.05S
OPELOUSAS      FAIR      34  34  98 CALM      30.05F
$$

ACROSS SOUTHWEST AND SOUTH CENTRAL LOUISIANA

CITY           SKY/WX    TMP DP  RH WIND       PRES   REMARKS
SULPHUR        SUNNY     39  36  89 CALM      30.06F
LAKE CHARLES   CLEAR     40  38  93 CALM      30.05F
CHENNAULT INT  CLEAR     38  36  93 CALM      30.05F
CAMERON PHI    SUNNY     48  41  76 N3        30.05F
DEQUINCY       FAIR      35  33  94 CALM      30.05F
JENNINGS       FAIR      40  38  95 CALM      30.05F
LAFAYETTE      CLEAR     40  36  86 CALM      30.04F
NEW IBERIA     CLEAR     38  34  85 CALM      30.05F
ABBEVILLE      FAIR      34  34 100 CALM      30.05S
PATTERSON      PTCLDY    38  38 100 CALM      30.04F
SALT POINT       N/A      1  32 100 CALM      30.03F
$$

SELECTED SITES ACROSS THE REGION

CITY           SKY/WX    TMP DP  RH WIND       PRES   REMARKS
HOUSTON BUSH   CLEAR     45  41  86 CALM      30.05F
HOUSTON HOBBY  PTCLDY    45  41  86 CALM      30.05F
GALVESTON      CLEAR     56  46  69 CALM      30.05F
COLLEGE STAT   CLEAR     45  35  68 CALM      30.05F
CONROE         CLEAR     37  36  96 CALM      30.05F
HUNTSVILLE     CLEAR     43  36  76 S3        30.04F
LUFKIN         CLEAR     39  38  96 CALM      30.05F
SHREVEPORT     CLEAR     39  34  82 CALM      30.03F
MONROE         CLEAR     35  33  92 CALM      30.06F
NATCHEZ MS     CLEAR     32  30  92 CALM      30.06S
BATON ROUGE    CLEAR     36  33  89 CALM      30.04F
N.O. INTL ARPT CLEAR     41  38  89 CALM      30.02F
SLIDELL        CLEAR     33  30  88 N5        30.01F WCI  29
$$

MARINE REPORTS

STATION/POSITION TIME  SKY/WX   TEMP    WIND        PRES    VSBY
                                AIR SEA DIR/SP/G
                 (UTC)          (F)     (DEG/KT/KT) (MB)    (MI)
BUOY 30 S HIGH I 0650            61 69   10/  6/  8 1017.9
WVE H/P(F/S)=  1/ 6

SEA RIM ST PARK  0800            48     350/  4/  4 1018.0F
PORT ARTHUR      0748            51 63   30/  2/  2 1017.7F
SABINE PASS N    0742            53 66   50/  3/  4 1019.0F
TEXAS POINT      NOT AVBL
CALCASIEU PASS   0748            53 63  360/  2/  3 1016.3F
LK CHARLES BEACH 0748            45 65              1017.2F
MARSH ISLAND     0700            55                   N/A
FRESH WATER LOCK 0748            49 65  360/  3/  5 1017.1F
AMERADA PASS     0748            46 57   10/  2/  3 1016.8F
$$




USA.gov is the U.S. government's official web portal to all federal, state and local government web resources and services.